Date String (YYYY-MM-DD hh:mm:ss) UTC,Instrument flags,absolute air pressure of the measurement (hPa),sample flow rate (lpm),inlet stack bypass flow (lpm),air temperature of the measurement (°C),ambient temperature measured by the external sensor (°C),aerosol sample conditioner tube jacket temperature (°C),OPC LED temperature (°C),internal box temperature (°C),relative humidity of the measurement (%),span deviation,mass concentration of particles derived from Lorenz-Mie calculation of OPC scattering (μg/m³),mass concentration of particles derived from Lorenz-Mie calculation of OPC scattering (μg/m³),mass concentration of particles derived from Lorenz-Mie calculation of OPC scattering (μg/m³)
DateTimeUTC,F1_M11,P_M11,Q1_M11,Q2_M11,T1_M11,T2_M11,T3_M11,T4_M11,T5_M11,U1_M11,ZSPAN_M11,X2_M11,X0_M11,X1_M11
2023-12-12 13:00:00,SystemResetWarning,0833.2,5.00,000.00,021.7,020.8,000.0,030.1,022.8,22.1,0000.0,0004.45,0005.73,0004.30
2023-12-12 13:01:00,SystemResetWarning,0833.2,5.00,000.00,021.7,020.7,000.0,030.1,022.8,22.1,0000.0,0004.47,0005.89,0004.32
2023-12-12 13:02:00,SystemResetWarning,0833.3,5.00,000.00,021.6,020.7,000.0,030.1,022.8,22.1,0000.0,0004.52,0006.31,0004.35
2023-12-12 13:03:00,SystemResetWarning,0833.2,5.00,000.00,021.6,020.7,000.0,030.1,022.8,22.2,0000.0,0004.56,0006.51,0004.37
2023-12-12 13:04:00,SystemResetWarning,0833.2,5.00,000.00,021.6,020.7,000.0,030.1,022.7,22.2,0000.0,0004.58,0006.56,0004.38
2023-12-12 13:05:00,SystemResetWarning,0833.2,5.00,000.00,021.6,020.7,000.0,030.0,022.7,22.2,0000.0,0004.58,0006.56,0004.39
2023-12-12 13:06:00,SystemResetWarning,0833.3,5.00,000.00,021.6,020.7,000.0,030.0,022.6,22.2,0000.0,0004.61,0006.72,0004.40
2023-12-12 13:07:00,SystemResetWarning,0833.2,4.99,000.00,021.5,020.6,000.0,030.0,022.6,22.3,0000.0,0004.59,0006.91,0004.39
2023-12-12 13:08:00,SystemResetWarning,0833.3,5.00,000.00,021.5,020.6,000.0,030.0,022.6,22.2,0000.0,0004.57,0006.97,0004.37
2023-12-12 13:09:00,SystemResetWarning,0833.3,5.00,000.00,021.5,020.6,000.0,030.0,022.6,22.2,0000.0,0004.56,0007.27,0004.34
2023-12-12 13:10:00,SystemResetWarning,0833.2,5.00,000.00,021.5,020.6,000.0,029.9,022.5,22.2,0000.0,0004.51,0007.33,0004.29
2023-12-12 13:11:00,SystemResetWarning,0833.2,5.00,000.00,021.4,020.5,000.0,029.9,022.4,22.3,0000.0,0004.45,0007.28,0004.24
2023-12-12 13:12:00,SystemResetWarning,0833.3,5.00,000.00,021.4,020.5,000.0,029.9,022.4,22.3,0000.0,0004.39,0007.09,0004.20
2023-12-12 13:13:00,SystemResetWarning,0833.3,5.00,000.00,021.3,020.5,000.0,029.9,022.3,22.4,0000.0,0004.34,0006.69,0004.15
2023-12-12 13:14:00,SystemResetWarning,0833.3,5.00,000.00,021.3,020.4,000.0,029.8,022.3,22.4,0000.0,0004.27,0006.54,0004.10
2023-12-12 13:15:00,SystemResetWarning,0833.3,5.00,000.00,021.3,020.4,000.0,029.8,022.2,22.4,0000.0,0004.19,0006.39,0004.03
2023-12-12 13:16:00,SystemResetWarning,0833.3,5.00,000.00,021.2,020.3,000.0,029.8,022.2,22.4,0000.0,0004.12,0006.25,0003.96
2023-12-12 13:17:00,SystemResetWarning,0833.3,5.00,000.00,021.2,020.3,000.0,029.8,022.2,22.4,0000.0,0004.03,0006.03,0003.88
2023-12-12 13:18:00,SystemResetWarning,0833.3,4.99,000.00,021.2,020.2,000.0,029.7,022.1,22.4,0000.0,0003.97,0005.68,0003.82
2023-12-12 13:19:00,SystemResetWarning,0833.3,5.00,000.00,021.2,020.2,000.0,029.7,022.2,22.3,0000.0,0003.87,0005.41,0003.74
2023-12-12 13:20:00,SystemResetWarning,0833.2,5.00,000.00,021.2,020.2,000.0,029.7,022.2,22.3,0000.0,0003.75,0004.95,0003.63
2023-12-12 13:21:00,SystemResetWarning,0833.3,5.01,000.00,021.2,020.2,000.0,029.7,022.2,22.2,0000.0,0003.67,0004.80,0003.53
2023-12-12 13:22:00,SystemResetWarning,0833.3,5.01,000.00,021.1,020.3,000.0,029.7,022.3,22.1,0000.0,0003.61,0004.83,0003.43
2023-12-12 13:23:00,SystemResetWarning,0833.3,5.01,000.00,021.2,020.3,000.0,029.6,022.3,22.1,0000.0,0003.53,0004.81,0003.32
2023-12-12 13:24:00,SystemResetWarning,0833.3,5.00,000.00,021.2,020.3,000.0,029.6,022.3,22.0,0000.0,0003.42,0005.15,0003.22
2023-12-12 13:25:00,SystemResetWarning,0833.3,5.00,000.00,021.1,020.3,000.0,029.6,022.3,22.0,0000.0,0003.32,0005.13,0003.13
2023-12-12 13:26:00,SystemResetWarning,0833.3,4.99,000.00,021.1,020.3,000.0,029.6,022.3,22.0,0000.0,0003.24,0004.98,0003.01
2023-12-12 13:27:00,SystemResetWarning,0833.3,4.99,000.00,021.1,020.3,000.0,029.6,022.3,21.9,0000.0,0003.18,0004.93,0002.88
2023-12-12 13:28:00,SystemResetWarning,0833.3,5.00,000.00,021.1,020.2,000.0,029.6,022.3,21.9,0000.0,0003.10,0004.82,0002.76
2023-12-12 13:29:00,SystemResetWarning,0833.2,5.00,000.00,021.1,020.2,000.0,029.6,022.3,21.9,0000.0,0003.00,0004.73,0002.64
2023-12-12 13:30:00,SystemResetWarning,0833.3,5.00,000.00,021.1,020.2,000.0,029.6,022.3,21.8,0000.0,0002.94,0004.69,0002.58
2023-12-12 13:31:00,SystemResetWarning,0833.3,5.00,000.00,021.1,020.2,000.0,029.5,022.3,21.8,0000.0,0002.91,0004.58,0002.56
2023-12-12 13:32:00,SystemResetWarning,0833.3,5.00,000.00,021.1,020.2,000.0,029.5,022.3,21.8,0000.0,0002.86,0004.37,0002.55
2023-12-12 13:33:00,SystemResetWarning,0833.3,5.00,000.00,021.1,020.2,000.0,029.5,022.3,21.8,0000.0,0002.81,0004.19,0002.55
2023-12-12 13:34:00,SystemResetWarning,0833.3,5.00,000.00,021.1,020.2,000.0,029.5,022.3,21.8,0000.0,0002.76,0004.02,0002.57
2023-12-12 13:35:00,SystemResetWarning,0833.3,5.00,000.00,021.1,020.2,000.0,029.5,022.3,21.8,0000.0,0002.77,0003.53,0002.59
2023-12-12 13:36:00,SystemResetWarning,0833.4,5.00,000.00,021.1,020.2,000.0,029.5,022.2,21.8,0000.0,0002.78,0003.46,0002.60
2023-12-12 13:37:00,SystemResetWarning,0833.4,5.00,000.00,021.1,020.2,000.0,029.5,022.3,21.8,0000.0,0002.82,0003.88,0002.62
2023-12-12 13:38:00,SystemResetWarning,0833.3,5.00,000.00,021.1,020.2,000.0,029.5,022.3,21.8,0000.0,0002.84,0003.92,0002.62
2023-12-12 13:39:00,SystemResetWarning,0833.3,5.00,000.00,021.1,020.2,000.0,029.5,022.2,21.8,0000.0,0002.90,0004.15,0002.64
2023-12-12 13:40:00,SystemResetWarning,0833.3,4.99,000.00,021.1,020.2,000.0,029.5,022.2,21.8,0000.0,0002.92,0004.31,0002.64
2023-12-12 13:41:00,SystemResetWarning,0833.3,5.00,000.00,021.1,020.2,000.0,029.5,022.2,21.8,0000.0,0002.94,0004.42,0002.66
2023-12-12 13:42:00,SystemResetWarning,0833.4,5.00,000.00,021.1,020.2,000.0,029.5,022.2,21.8,0000.0,0002.97,0004.54,0002.68
2023-12-12 13:43:00,SystemResetWarning,0833.4,4.99,000.00,021.1,020.2,000.0,029.4,022.3,21.8,0000.0,0002.99,0004.55,0002.70
2023-12-12 13:44:00,SystemResetWarning,0833.4,5.01,000.00,021.0,020.2,000.0,029.4,022.2,21.8,0000.0,0003.01,0004.54,0002.72
2023-12-12 13:45:00,SystemResetWarning,0833.4,5.00,000.00,021.0,020.2,000.0,029.4,022.2,21.8,0000.0,0003.03,0004.69,0002.74
2023-12-12 13:46:00,SystemResetWarning,0833.4,5.00,000.00,021.0,020.1,000.0,029.4,022.2,21.8,0000.0,0003.07,0004.83,0002.74
2023-12-12 13:47:00,SystemResetWarning,0833.4,4.99,000.00,021.0,020.1,000.0,029.4,022.2,21.7,0000.0,0003.08,0004.69,0002.76
2023-12-12 13:48:00,SystemResetWarning,0833.4,4.98,000.00,021.0,020.1,000.0,029.4,022.3,21.7,0000.0,0003.07,0004.32,0002.78
2023-12-12 13:49:00,SystemResetWarning,0833.4,5.01,000.00,021.0,020.1,000.0,029.4,022.2,21.7,0000.0,0003.09,0004.34,0002.80
2023-12-12 13:50:00,SystemResetWarning,0833.4,5.01,000.00,021.0,020.1,000.0,029.4,022.3,21.7,0000.0,0003.09,0004.42,0002.80
2023-12-12 13:51:00,SystemResetWarning,0833.4,5.00,000.00,021.0,020.1,000.0,029.4,022.3,21.7,0000.0,0003.08,0004.40,0002.81
2023-12-12 13:52:00,SystemResetWarning,0833.4,4.99,000.00,021.0,020.1,000.0,029.4,022.3,21.7,0000.0,0003.07,0004.30,0002.81
2023-12-12 13:53:00,SystemResetWarning,0833.4,4.99,000.00,021.0,020.1,000.0,029.4,022.3,21.7,0000.0,0003.05,0004.24,0002.81
2023-12-12 13:54:00,SystemResetWarning,0833.4,5.01,000.00,021.0,020.1,000.0,029.4,022.3,21.7,0000.0,0003.04,0004.28,0002.80
2023-12-12 13:55:00,SystemResetWarning,0833.4,5.00,000.00,021.0,020.1,000.0,029.4,022.3,21.6,0000.0,0003.05,0004.30,0002.80
2023-12-12 13:56:00,SystemResetWarning,0833.4,5.00,000.00,021.0,020.1,000.0,029.4,022.3,21.6,0000.0,0003.07,0004.32,0002.80
2023-12-12 13:57:00,SystemResetWarning,0833.4,5.00,000.00,021.0,020.1,000.0,029.4,022.3,21.6,0000.0,0003.07,0004.30,0002.81
2023-12-12 13:58:00,SystemResetWarning,0833.4,5.00,000.00,021.0,020.1,000.0,029.4,022.3,21.6,0000.0,0003.08,0004.28,0002.81
2023-12-12 13:59:00,SystemResetWarning,0833.4,5.00,000.00,021.0,020.1,000.0,029.4,022.3,21.6,0000.0,0003.08,0004.28,0002.80
